Year,Month,Day,Hour,Minute,Value (Times are PST for temperature in C)
2015,07,27,00,00,12.50
2015,07,27,00,01,12.50
2015,07,27,00,02,12.50
2015,07,27,00,03,12.40
2015,07,27,00,04,12.40
2015,07,27,00,05,12.40
2015,07,27,00,06,12.40
2015,07,27,00,07,12.40
2015,07,27,00,08,12.40
2015,07,27,00,09,12.40
2015,07,27,00,10,12.30
2015,07,27,00,11,12.30
2015,07,27,00,12,12.30
2015,07,27,00,13,12.30
2015,07,27,00,14,12.30
2015,07,27,00,15,12.20
2015,07,27,00,16,12.20
2015,07,27,00,17,12.20
2015,07,27,00,18,12.20
2015,07,27,00,19,12.20
2015,07,27,00,20,12.20
2015,07,27,00,21,12.20
2015,07,27,00,22,12.20
2015,07,27,00,23,12.20
2015,07,27,00,24,12.10
2015,07,27,00,25,12.10
2015,07,27,00,26,12.10
2015,07,27,00,27,12.10
2015,07,27,00,28,12.10
2015,07,27,00,29,12.20
2015,07,27,00,30,12.20
2015,07,27,00,31,12.20
2015,07,27,00,32,12.10
2015,07,27,00,33,12.20
2015,07,27,00,34,12.20
2015,07,27,00,35,12.20
2015,07,27,00,36,12.20
2015,07,27,00,37,12.20
2015,07,27,00,38,12.10
2015,07,27,00,39,12.10
2015,07,27,00,40,12.10
2015,07,27,00,41,12.10
2015,07,27,00,42,12.10
2015,07,27,00,43,12.10
2015,07,27,00,44,12.00
2015,07,27,00,45,12.00
2015,07,27,00,46,12.00
2015,07,27,00,47,12.00
2015,07,27,00,48,11.90
2015,07,27,00,49,11.90
2015,07,27,00,50,11.90
2015,07,27,00,51,11.90
2015,07,27,00,52,11.80
2015,07,27,00,53,11.80
2015,07,27,00,54,11.80
2015,07,27,00,55,11.80
2015,07,27,00,56,11.80
2015,07,27,00,57,11.80
2015,07,27,00,58,11.70
2015,07,27,00,59,11.70
2015,07,27,01,00,11.70
2015,07,27,01,01,11.70
2015,07,27,01,02,11.70
2015,07,27,01,03,11.70
2015,07,27,01,04,11.70
2015,07,27,01,05,11.70
2015,07,27,01,06,11.70
2015,07,27,01,07,11.70
2015,07,27,01,08,11.70
2015,07,27,01,09,11.70
2015,07,27,01,10,11.70
2015,07,27,01,11,11.70
2015,07,27,01,12,11.70
2015,07,27,01,13,11.70
2015,07,27,01,14,11.70
2015,07,27,01,15,11.70
2015,07,27,01,16,11.70
2015,07,27,01,17,11.70
2015,07,27,01,18,11.70
2015,07,27,01,19,11.70
2015,07,27,01,20,11.70
2015,07,27,01,21,11.60
2015,07,27,01,22,11.60
2015,07,27,01,23,11.60
2015,07,27,01,24,11.60
2015,07,27,01,25,11.60
2015,07,27,01,26,11.50
2015,07,27,01,27,11.50
2015,07,27,01,28,11.50
2015,07,27,01,29,11.50
2015,07,27,01,30,11.50
2015,07,27,01,31,11.50
2015,07,27,01,32,11.50
2015,07,27,01,33,11.50
2015,07,27,01,34,11.50
2015,07,27,01,35,11.50
2015,07,27,01,36,11.50
2015,07,27,01,37,11.60
2015,07,27,01,38,11.60
2015,07,27,01,39,11.60
2015,07,27,01,40,11.50
2015,07,27,01,41,11.50
2015,07,27,01,42,11.50
2015,07,27,01,43,11.40
2015,07,27,01,44,11.40
2015,07,27,01,45,11.40
2015,07,27,01,46,11.40
2015,07,27,01,47,11.30
2015,07,27,01,48,11.30
2015,07,27,01,49,11.30
2015,07,27,01,50,11.20
2015,07,27,01,51,11.20
2015,07,27,01,52,11.20
2015,07,27,01,53,11.20
2015,07,27,01,54,11.20
2015,07,27,01,55,11.20
2015,07,27,01,56,11.30
2015,07,27,01,57,11.40
2015,07,27,01,58,11.60
2015,07,27,01,59,11.60
2015,07,27,02,00,11.70
2015,07,27,02,01,11.80
2015,07,27,02,02,11.80
2015,07,27,02,03,11.80
2015,07,27,02,04,11.80
2015,07,27,02,05,11.70
2015,07,27,02,06,11.70
2015,07,27,02,07,11.60
2015,07,27,02,08,11.60
2015,07,27,02,09,11.50
2015,07,27,02,10,11.40
2015,07,27,02,11,11.40
2015,07,27,02,12,11.40
2015,07,27,02,13,11.40
2015,07,27,02,14,11.40
2015,07,27,02,15,11.40
2015,07,27,02,16,11.40
2015,07,27,02,17,11.40
2015,07,27,02,18,11.40
2015,07,27,02,19,11.30
2015,07,27,02,20,11.30
2015,07,27,02,21,11.30
2015,07,27,02,22,11.30
2015,07,27,02,23,11.30
2015,07,27,02,24,11.30
2015,07,27,02,25,11.30
2015,07,27,02,26,11.20
2015,07,27,02,27,11.20
2015,07,27,02,28,11.20
2015,07,27,02,29,11.10
2015,07,27,02,30,11.10
2015,07,27,02,31,11.10
2015,07,27,02,32,11.00
2015,07,27,02,33,11.00
2015,07,27,02,34,10.90
2015,07,27,02,35,10.90
2015,07,27,02,36,10.80
2015,07,27,02,37,10.80
2015,07,27,02,38,10.80
2015,07,27,02,39,10.80
2015,07,27,02,40,10.70
2015,07,27,02,41,10.80
2015,07,27,02,42,10.80
2015,07,27,02,43,10.80
2015,07,27,02,44,10.80
2015,07,27,02,45,10.80
2015,07,27,02,46,10.80
2015,07,27,02,47,10.80
2015,07,27,02,48,10.80
2015,07,27,02,49,10.80
2015,07,27,02,50,10.90
2015,07,27,02,51,10.90
2015,07,27,02,52,10.90
2015,07,27,02,53,11.00
2015,07,27,02,54,11.10
2015,07,27,02,55,11.10
2015,07,27,02,56,11.10
2015,07,27,02,57,11.20
2015,07,27,02,58,11.20
2015,07,27,02,59,11.30
2015,07,27,03,00,11.30
2015,07,27,03,01,11.40
2015,07,27,03,02,11.40
2015,07,27,03,03,11.50
2015,07,27,03,04,11.50
2015,07,27,03,05,11.60
2015,07,27,03,06,11.60
2015,07,27,03,07,11.70
2015,07,27,03,08,11.70
2015,07,27,03,09,11.80
2015,07,27,03,10,11.80
2015,07,27,03,11,11.80
2015,07,27,03,12,11.90
2015,07,27,03,13,12.00
2015,07,27,03,14,12.10
2015,07,27,03,15,12.10
2015,07,27,03,16,12.20
2015,07,27,03,17,12.30
2015,07,27,03,18,12.40
2015,07,27,03,19,12.50
2015,07,27,03,20,12.60
2015,07,27,03,21,12.70
2015,07,27,03,22,12.80
2015,07,27,03,23,12.80
2015,07,27,03,24,12.90
2015,07,27,03,25,13.00
2015,07,27,03,26,13.10
2015,07,27,03,27,13.10
2015,07,27,03,28,13.20
2015,07,27,03,29,13.20
2015,07,27,03,30,13.30
2015,07,27,03,31,13.30
2015,07,27,03,32,13.30
2015,07,27,03,33,13.30
2015,07,27,03,34,13.30
2015,07,27,03,35,13.30
2015,07,27,03,36,13.20
2015,07,27,03,37,13.20
2015,07,27,03,38,13.10
2015,07,27,03,39,13.10
2015,07,27,03,40,13.00
2015,07,27,03,41,12.80
2015,07,27,03,42,12.70
2015,07,27,03,43,12.60
2015,07,27,03,44,12.50
2015,07,27,03,45,12.30
2015,07,27,03,46,12.20
2015,07,27,03,47,12.00
2015,07,27,03,48,12.00
2015,07,27,03,49,11.80
2015,07,27,03,50,11.70
2015,07,27,03,51,11.60
2015,07,27,03,52,11.60
2015,07,27,03,53,11.50
2015,07,27,03,54,11.40
2015,07,27,03,55,11.30
2015,07,27,03,56,11.30
2015,07,27,03,57,11.20
2015,07,27,03,58,11.20
2015,07,27,03,59,11.10
2015,07,27,04,00,11.10
2015,07,27,04,01,11.00
2015,07,27,04,02,11.00
2015,07,27,04,03,11.00
2015,07,27,04,04,11.00
2015,07,27,04,05,10.90
2015,07,27,04,06,10.80
2015,07,27,04,07,10.80
2015,07,27,04,08,10.80
2015,07,27,04,09,10.80
2015,07,27,04,10,10.80
2015,07,27,04,11,10.70
2015,07,27,04,12,10.70
2015,07,27,04,13,10.70
2015,07,27,04,14,10.80
2015,07,27,04,15,10.80
2015,07,27,04,16,10.80
2015,07,27,04,17,10.90
2015,07,27,04,18,11.00
2015,07,27,04,19,11.10
2015,07,27,04,20,11.10
2015,07,27,04,21,11.20
2015,07,27,04,22,11.20
2015,07,27,04,23,11.30
2015,07,27,04,24,11.30
2015,07,27,04,25,11.30
2015,07,27,04,26,11.40
2015,07,27,04,27,11.40
2015,07,27,04,28,11.50
2015,07,27,04,29,11.50
2015,07,27,04,30,11.60
2015,07,27,04,31,11.60
2015,07,27,04,32,11.60
2015,07,27,04,33,11.60
2015,07,27,04,34,11.50
2015,07,27,04,35,11.50
2015,07,27,04,36,11.40
2015,07,27,04,37,11.40
2015,07,27,04,38,11.40
2015,07,27,04,39,11.30
2015,07,27,04,40,11.30
2015,07,27,04,41,11.30
2015,07,27,04,42,11.20
2015,07,27,04,43,11.20
2015,07,27,04,44,11.20
2015,07,27,04,45,11.20
2015,07,27,04,46,11.20
2015,07,27,04,47,11.20
2015,07,27,04,48,11.20
2015,07,27,04,49,11.20
2015,07,27,04,50,11.20
2015,07,27,04,51,11.20
2015,07,27,04,52,11.20
2015,07,27,04,53,11.20
2015,07,27,04,54,11.20
2015,07,27,04,55,11.20
2015,07,27,04,56,11.20
2015,07,27,04,57,11.20
2015,07,27,04,58,11.30
2015,07,27,04,59,11.30
2015,07,27,05,00,11.30
2015,07,27,05,01,11.30
2015,07,27,05,02,11.40
2015,07,27,05,03,11.40
2015,07,27,05,04,11.40
2015,07,27,05,05,11.40
2015,07,27,05,06,11.50
2015,07,27,05,07,11.50
2015,07,27,05,08,11.50
2015,07,27,05,09,11.50
2015,07,27,05,10,11.60
2015,07,27,05,11,11.60
2015,07,27,05,12,11.60
2015,07,27,05,13,11.60
2015,07,27,05,14,11.70
2015,07,27,05,15,11.70
2015,07,27,05,16,11.70
2015,07,27,05,17,11.70
2015,07,27,05,18,11.70
2015,07,27,05,19,11.70
2015,07,27,05,20,11.70
2015,07,27,05,21,11.70
2015,07,27,05,22,11.70
2015,07,27,05,23,11.60
2015,07,27,05,24,11.60
2015,07,27,05,25,11.60
2015,07,27,05,26,11.50
2015,07,27,05,27,11.40
2015,07,27,05,28,11.40
2015,07,27,05,29,11.30
2015,07,27,05,30,11.30
2015,07,27,05,31,11.30
2015,07,27,05,32,11.20
2015,07,27,05,33,11.20
2015,07,27,05,34,11.10
2015,07,27,05,35,11.10
2015,07,27,05,36,11.00
2015,07,27,05,37,11.00
2015,07,27,05,38,11.00
2015,07,27,05,39,10.90
2015,07,27,05,40,10.90
2015,07,27,05,41,10.90
2015,07,27,05,42,10.90
2015,07,27,05,43,10.90
2015,07,27,05,44,10.90
2015,07,27,05,45,10.90
2015,07,27,05,46,10.90
2015,07,27,05,47,10.90
2015,07,27,05,48,10.90
2015,07,27,05,49,10.90
2015,07,27,05,50,10.90
2015,07,27,05,51,10.90
2015,07,27,05,52,10.90
2015,07,27,05,53,10.90
2015,07,27,05,54,10.90
2015,07,27,05,55,10.90
2015,07,27,05,56,10.90
2015,07,27,05,57,10.90
2015,07,27,05,58,10.90
2015,07,27,05,59,10.90
2015,07,27,06,00,10.90
2015,07,27,06,01,10.90
2015,07,27,06,02,10.90
2015,07,27,06,03,10.80
2015,07,27,06,04,10.80
2015,07,27,06,05,10.80
2015,07,27,06,06,10.80
2015,07,27,06,07,10.80
2015,07,27,06,08,10.80
2015,07,27,06,09,10.80
2015,07,27,06,10,10.80
2015,07,27,06,11,10.70
2015,07,27,06,12,10.70
2015,07,27,06,13,10.70
2015,07,27,06,14,10.70
2015,07,27,06,15,10.70
2015,07,27,06,16,10.70
2015,07,27,06,17,10.70
2015,07,27,06,18,10.70
2015,07,27,06,19,10.70
2015,07,27,06,20,10.70
2015,07,27,06,21,10.80
2015,07,27,06,22,10.80
2015,07,27,06,23,10.80
2015,07,27,06,24,10.80
2015,07,27,06,25,10.80
2015,07,27,06,26,10.90
2015,07,27,06,27,10.90
2015,07,27,06,28,10.90
2015,07,27,06,29,10.90
2015,07,27,06,30,11.00
2015,07,27,06,31,11.00
2015,07,27,06,32,11.10
2015,07,27,06,33,11.10
2015,07,27,06,34,11.10
2015,07,27,06,35,11.10
2015,07,27,06,36,11.10
2015,07,27,06,37,11.20
2015,07,27,06,38,11.20
2015,07,27,06,39,11.20
2015,07,27,06,40,11.20
2015,07,27,06,41,11.20
2015,07,27,06,42,11.20
2015,07,27,06,43,11.20
2015,07,27,06,44,11.30
2015,07,27,06,45,11.30
2015,07,27,06,46,11.30
2015,07,27,06,47,11.30
2015,07,27,06,48,11.40
2015,07,27,06,49,11.40
2015,07,27,06,50,11.50
2015,07,27,06,51,11.50
2015,07,27,06,52,11.60
2015,07,27,06,53,11.60
2015,07,27,06,54,11.70
2015,07,27,06,55,11.80
2015,07,27,06,56,11.90
2015,07,27,06,57,11.90
2015,07,27,06,58,12.00
2015,07,27,06,59,12.10
2015,07,27,07,00,12.20
2015,07,27,07,01,12.20
2015,07,27,07,02,12.30
2015,07,27,07,03,12.30
2015,07,27,07,04,12.40
2015,07,27,07,05,12.50
2015,07,27,07,06,12.50
2015,07,27,07,07,12.60
2015,07,27,07,08,12.60
2015,07,27,07,09,12.70
2015,07,27,07,10,12.80
2015,07,27,07,11,12.80
2015,07,27,07,12,12.90
2015,07,27,07,13,13.00
2015,07,27,07,14,13.10
2015,07,27,07,15,13.20
2015,07,27,07,16,13.30
2015,07,27,07,17,13.40
2015,07,27,07,18,13.50
2015,07,27,07,19,13.70
2015,07,27,07,20,13.80
2015,07,27,07,21,14.00
2015,07,27,07,22,14.10
2015,07,27,07,23,14.30
2015,07,27,07,24,14.40
2015,07,27,07,25,14.60
2015,07,27,07,26,14.70
2015,07,27,07,27,14.80
2015,07,27,07,28,14.90
2015,07,27,07,29,15.00
2015,07,27,07,30,15.00
2015,07,27,07,31,15.00
2015,07,27,07,32,15.00
2015,07,27,07,33,15.10
2015,07,27,07,34,15.20
2015,07,27,07,35,15.20
2015,07,27,07,36,15.30
2015,07,27,07,37,15.40
2015,07,27,07,38,15.40
2015,07,27,07,39,15.50
2015,07,27,07,40,15.50
2015,07,27,07,41,15.60
2015,07,27,07,42,15.60
2015,07,27,07,43,15.70
2015,07,27,07,44,15.70
2015,07,27,07,45,15.80
2015,07,27,07,46,15.80
2015,07,27,07,47,15.80
2015,07,27,07,48,15.90
2015,07,27,07,49,15.90
2015,07,27,07,50,16.00
2015,07,27,07,51,16.00
2015,07,27,07,52,16.10
2015,07,27,07,53,16.10
2015,07,27,07,54,16.20
2015,07,27,07,55,16.30
2015,07,27,07,56,16.30
2015,07,27,07,57,16.40
2015,07,27,07,58,16.50
2015,07,27,07,59,16.60
2015,07,27,08,00,16.60
2015,07,27,08,01,16.70
2015,07,27,08,02,16.70
2015,07,27,08,03,16.80
2015,07,27,08,04,16.80
2015,07,27,08,05,16.90
2015,07,27,08,06,17.00
2015,07,27,08,07,17.00
2015,07,27,08,08,17.10
2015,07,27,08,09,17.10
2015,07,27,08,10,17.20
2015,07,27,08,11,17.20
2015,07,27,08,12,17.10
2015,07,27,08,13,17.10
2015,07,27,08,14,17.10
2015,07,27,08,15,17.10
2015,07,27,08,16,17.10
2015,07,27,08,17,17.10
2015,07,27,08,18,17.00
2015,07,27,08,19,17.00
2015,07,27,08,20,16.90
2015,07,27,08,21,16.90
2015,07,27,08,22,16.90
2015,07,27,08,23,16.80
2015,07,27,08,24,16.80
2015,07,27,08,25,16.80
2015,07,27,08,26,16.80
2015,07,27,08,27,16.80
2015,07,27,08,28,16.80
2015,07,27,08,29,16.80
2015,07,27,08,30,16.80
2015,07,27,08,31,16.80
2015,07,27,08,32,16.80
2015,07,27,08,33,16.80
2015,07,27,08,34,16.90
2015,07,27,08,35,17.00
2015,07,27,08,36,17.00
2015,07,27,08,37,17.00
2015,07,27,08,38,17.10
2015,07,27,08,39,17.20
2015,07,27,08,40,17.20
2015,07,27,08,41,17.30
2015,07,27,08,42,17.30
2015,07,27,08,43,17.30
2015,07,27,08,44,17.30
2015,07,27,08,45,17.30
2015,07,27,08,46,17.30
2015,07,27,08,47,17.20
2015,07,27,08,48,17.10
2015,07,27,08,49,17.10
2015,07,27,08,50,17.10
2015,07,27,08,51,17.10
2015,07,27,08,52,17.10
2015,07,27,08,53,17.20
2015,07,27,08,54,17.20
2015,07,27,08,55,17.30
2015,07,27,08,56,17.30
2015,07,27,08,57,17.30
2015,07,27,08,58,17.50
2015,07,27,08,59,17.60
2015,07,27,09,00,17.70
2015,07,27,09,01,17.60
2015,07,27,09,02,17.50
2015,07,27,09,03,17.50
2015,07,27,09,04,17.40
2015,07,27,09,05,17.30
2015,07,27,09,06,17.30
2015,07,27,09,07,17.30
2015,07,27,09,08,17.30
2015,07,27,09,09,17.30
2015,07,27,09,10,17.30
2015,07,27,09,11,17.30
2015,07,27,09,12,17.30
2015,07,27,09,13,17.30
2015,07,27,09,14,17.40
2015,07,27,09,15,17.40
2015,07,27,09,16,17.30
2015,07,27,09,17,17.40
2015,07,27,09,18,17.40
2015,07,27,09,19,17.50
2015,07,27,09,20,17.70
2015,07,27,09,21,17.90
2015,07,27,09,22,18.00
2015,07,27,09,23,18.00
2015,07,27,09,24,17.90
2015,07,27,09,25,17.80
2015,07,27,09,26,17.80
2015,07,27,09,27,17.70
2015,07,27,09,28,17.70
2015,07,27,09,29,17.70
2015,07,27,09,30,17.70
2015,07,27,09,31,17.70
2015,07,27,09,32,17.70
2015,07,27,09,33,17.70
2015,07,27,09,34,17.80
2015,07,27,09,35,17.90
2015,07,27,09,36,18.10
2015,07,27,09,37,18.10
2015,07,27,09,38,18.10
2015,07,27,09,39,18.10
2015,07,27,09,40,18.10
2015,07,27,09,41,18.10
2015,07,27,09,42,18.10
2015,07,27,09,43,18.20
2015,07,27,09,44,18.20
2015,07,27,09,45,18.20
2015,07,27,09,46,18.30
2015,07,27,09,47,18.30
2015,07,27,09,48,18.20
2015,07,27,09,49,18.30
2015,07,27,09,50,18.20
2015,07,27,09,51,18.20
2015,07,27,09,52,18.20
2015,07,27,09,53,18.20
2015,07,27,09,54,18.20
2015,07,27,09,55,18.10
2015,07,27,09,56,18.00
2015,07,27,09,57,18.00
2015,07,27,09,58,18.10
2015,07,27,09,59,18.10
2015,07,27,10,00,18.10
2015,07,27,10,01,18.10
2015,07,27,10,02,18.00
2015,07,27,10,03,18.10
2015,07,27,10,04,18.10
2015,07,27,10,05,18.00
2015,07,27,10,06,18.00
2015,07,27,10,07,18.10
2015,07,27,10,08,18.20
2015,07,27,10,09,18.20
2015,07,27,10,10,18.20
2015,07,27,10,11,18.30
2015,07,27,10,12,18.30
2015,07,27,10,13,18.40
2015,07,27,10,14,18.40
2015,07,27,10,15,18.50
2015,07,27,10,16,18.50
2015,07,27,10,17,18.50
2015,07,27,10,18,18.40
2015,07,27,10,19,18.50
2015,07,27,10,20,18.50
2015,07,27,10,21,18.40
2015,07,27,10,22,18.50
2015,07,27,10,23,18.60
2015,07,27,10,24,18.80
2015,07,27,10,25,18.90
2015,07,27,10,26,18.80
2015,07,27,10,27,18.70
2015,07,27,10,28,18.60
2015,07,27,10,29,18.50
2015,07,27,10,30,18.50
2015,07,27,10,31,18.60
2015,07,27,10,32,18.60
2015,07,27,10,33,18.50
2015,07,27,10,34,18.40
2015,07,27,10,35,18.30
2015,07,27,10,36,18.20
2015,07,27,10,37,18.10
2015,07,27,10,38,18.10
2015,07,27,10,39,18.10
2015,07,27,10,40,18.10
2015,07,27,10,41,18.10
2015,07,27,10,42,18.20
2015,07,27,10,43,18.20
2015,07,27,10,44,18.20
2015,07,27,10,45,18.20
2015,07,27,10,46,18.30
2015,07,27,10,47,18.50
2015,07,27,10,48,18.70
2015,07,27,10,49,18.90
2015,07,27,10,50,18.90
2015,07,27,10,51,18.90
2015,07,27,10,52,18.80
2015,07,27,10,53,18.70
2015,07,27,10,54,18.70
2015,07,27,10,55,18.60
2015,07,27,10,56,18.70
2015,07,27,10,57,18.70
2015,07,27,10,58,18.70
2015,07,27,10,59,18.70
2015,07,27,11,00,18.70
2015,07,27,11,01,18.80
2015,07,27,11,02,18.80
2015,07,27,11,03,18.80
2015,07,27,11,04,18.80
2015,07,27,11,05,18.70
2015,07,27,11,06,18.80
2015,07,27,11,07,18.90
2015,07,27,11,08,18.90
2015,07,27,11,09,18.90
2015,07,27,11,10,18.90
2015,07,27,11,11,18.80
2015,07,27,11,12,18.70
2015,07,27,11,13,18.60
2015,07,27,11,14,18.60
2015,07,27,11,15,18.50
2015,07,27,11,16,18.60
2015,07,27,11,17,18.70
2015,07,27,11,18,18.80
2015,07,27,11,19,18.80
2015,07,27,11,20,18.80
2015,07,27,11,21,18.80
2015,07,27,11,22,18.80
2015,07,27,11,23,18.70
2015,07,27,11,24,18.60
2015,07,27,11,25,18.60
2015,07,27,11,26,18.50
2015,07,27,11,27,18.60
2015,07,27,11,28,18.60
2015,07,27,11,29,18.60
2015,07,27,11,30,18.60
2015,07,27,11,31,18.60
2015,07,27,11,32,18.60
2015,07,27,11,33,18.50
2015,07,27,11,34,18.40
2015,07,27,11,35,18.40
2015,07,27,11,36,18.50
2015,07,27,11,37,18.50
2015,07,27,11,38,18.50
2015,07,27,11,39,18.40
2015,07,27,11,40,18.50
2015,07,27,11,41,18.60
2015,07,27,11,42,18.60
2015,07,27,11,43,18.70
2015,07,27,11,44,18.80
2015,07,27,11,45,18.80
2015,07,27,11,46,18.80
2015,07,27,11,47,18.80
2015,07,27,11,48,18.80
2015,07,27,11,49,18.90
2015,07,27,11,50,19.00
2015,07,27,11,51,19.00
2015,07,27,11,52,19.10
2015,07,27,11,53,19.30
2015,07,27,11,54,19.10
2015,07,27,11,55,19.00
2015,07,27,11,56,18.90
2015,07,27,11,57,18.80
2015,07,27,11,58,18.90
2015,07,27,11,59,18.90
2015,07,27,12,00,19.00
2015,07,27,12,01,19.00
2015,07,27,12,02,19.10
2015,07,27,12,03,19.20
2015,07,27,12,04,19.20
2015,07,27,12,05,19.30
2015,07,27,12,06,19.50
2015,07,27,12,07,19.50
2015,07,27,12,08,19.60
2015,07,27,12,09,19.60
2015,07,27,12,10,19.50
2015,07,27,12,11,19.40
2015,07,27,12,12,19.40
2015,07,27,12,13,19.40
2015,07,27,12,14,19.30
2015,07,27,12,15,19.20
2015,07,27,12,16,19.10
2015,07,27,12,17,19.00
2015,07,27,12,18,19.00
2015,07,27,12,19,18.90
2015,07,27,12,20,18.90
2015,07,27,12,21,19.00
2015,07,27,12,22,19.10
2015,07,27,12,23,19.30
2015,07,27,12,24,19.40
2015,07,27,12,25,19.60
2015,07,27,12,26,19.70
2015,07,27,12,27,19.70
2015,07,27,12,28,19.50
2015,07,27,12,29,19.30
2015,07,27,12,30,19.30
2015,07,27,12,31,19.20
2015,07,27,12,32,19.20
2015,07,27,12,33,19.10
2015,07,27,12,34,19.10
2015,07,27,12,35,19.20
2015,07,27,12,36,19.30
2015,07,27,12,37,19.20
2015,07,27,12,38,19.20
2015,07,27,12,39,19.20
2015,07,27,12,40,19.20
2015,07,27,12,41,19.20
2015,07,27,12,42,19.10
2015,07,27,12,43,19.20
2015,07,27,12,44,19.30
2015,07,27,12,45,19.40
2015,07,27,12,46,19.50
2015,07,27,12,47,19.40
2015,07,27,12,48,19.30
2015,07,27,12,49,19.30
2015,07,27,12,50,19.10
2015,07,27,12,51,19.10
2015,07,27,12,52,19.00
2015,07,27,12,53,19.00
2015,07,27,12,54,19.00
2015,07,27,12,55,19.00
2015,07,27,12,56,19.10
2015,07,27,12,57,19.10
2015,07,27,12,58,19.10
2015,07,27,12,59,19.20
2015,07,27,13,00,19.20
2015,07,27,13,01,19.30
2015,07,27,13,02,19.30
2015,07,27,13,03,19.30
2015,07,27,13,04,19.40
2015,07,27,13,05,19.40
2015,07,27,13,06,19.40
2015,07,27,13,07,19.40
2015,07,27,13,08,19.50
2015,07,27,13,09,19.50
2015,07,27,13,10,19.60
2015,07,27,13,11,19.70
2015,07,27,13,12,19.80
2015,07,27,13,13,19.80
2015,07,27,13,14,19.80
2015,07,27,13,15,19.70
2015,07,27,13,16,19.80
2015,07,27,13,17,19.80
2015,07,27,13,18,19.70
2015,07,27,13,19,19.70
2015,07,27,13,20,19.80
2015,07,27,13,21,19.80
2015,07,27,13,22,19.80
2015,07,27,13,23,19.90
2015,07,27,13,24,19.90
2015,07,27,13,25,19.90
2015,07,27,13,26,19.90
2015,07,27,13,27,19.90
2015,07,27,13,28,20.00
2015,07,27,13,29,20.00
2015,07,27,13,30,20.00
2015,07,27,13,31,19.80
2015,07,27,13,32,19.80
2015,07,27,13,33,19.80
2015,07,27,13,34,19.70
2015,07,27,13,35,19.70
2015,07,27,13,36,19.60
2015,07,27,13,37,19.60
2015,07,27,13,38,19.60
2015,07,27,13,39,19.60
2015,07,27,13,40,19.60
2015,07,27,13,41,19.50
2015,07,27,13,42,19.50
2015,07,27,13,43,19.50
2015,07,27,13,44,19.60
2015,07,27,13,45,19.60
2015,07,27,13,46,19.50
2015,07,27,13,47,19.40
2015,07,27,13,48,19.50
2015,07,27,13,49,19.50
2015,07,27,13,50,19.60
2015,07,27,13,51,19.60
2015,07,27,13,52,19.60
2015,07,27,13,53,19.70
2015,07,27,13,54,19.70
2015,07,27,13,55,19.80
2015,07,27,13,56,19.80
2015,07,27,13,57,19.90
2015,07,27,13,58,20.00
2015,07,27,13,59,20.00
2015,07,27,14,00,20.00
2015,07,27,14,01,20.00
2015,07,27,14,02,19.90
2015,07,27,14,03,19.90
2015,07,27,14,04,20.00
2015,07,27,14,05,20.10
2015,07,27,14,06,20.10
2015,07,27,14,07,20.10
2015,07,27,14,08,20.10
2015,07,27,14,09,20.10
2015,07,27,14,10,20.10
2015,07,27,14,11,20.10
2015,07,27,14,12,20.20
2015,07,27,14,13,20.20
2015,07,27,14,14,20.30
2015,07,27,14,15,20.30
2015,07,27,14,16,20.20
2015,07,27,14,17,20.10
2015,07,27,14,18,20.00
2015,07,27,14,19,19.90
2015,07,27,14,20,20.00
2015,07,27,14,21,20.00
2015,07,27,14,22,20.00
2015,07,27,14,23,20.10
2015,07,27,14,24,20.10
2015,07,27,14,25,20.10
2015,07,27,14,26,20.10
2015,07,27,14,27,20.10
2015,07,27,14,28,20.10
2015,07,27,14,29,20.20
2015,07,27,14,30,20.30
2015,07,27,14,31,20.40
2015,07,27,14,32,20.60
2015,07,27,14,33,20.60
2015,07,27,14,34,20.50
2015,07,27,14,35,20.40
2015,07,27,14,36,20.40
2015,07,27,14,37,20.40
2015,07,27,14,38,20.30
2015,07,27,14,39,20.30
2015,07,27,14,40,20.30
2015,07,27,14,41,20.30
2015,07,27,14,42,20.40
2015,07,27,14,43,20.40
2015,07,27,14,44,20.40
2015,07,27,14,45,20.30
2015,07,27,14,46,20.30
2015,07,27,14,47,20.30
2015,07,27,14,48,20.30
2015,07,27,14,49,20.30
2015,07,27,14,50,20.40
2015,07,27,14,51,20.60
2015,07,27,14,52,20.70
2015,07,27,14,53,20.80
2015,07,27,14,54,20.80
2015,07,27,14,55,20.70
2015,07,27,14,56,20.60
2015,07,27,14,57,20.50
2015,07,27,14,58,20.40
2015,07,27,14,59,20.30
2015,07,27,15,00,20.20
2015,07,27,15,01,20.20
2015,07,27,15,02,20.20
2015,07,27,15,03,20.30
2015,07,27,15,04,20.30
2015,07,27,15,05,20.30
2015,07,27,15,06,20.30
2015,07,27,15,07,20.40
2015,07,27,15,08,20.40
2015,07,27,15,09,20.40
2015,07,27,15,10,20.30
2015,07,27,15,11,20.20
2015,07,27,15,12,20.20
2015,07,27,15,13,20.40
2015,07,27,15,14,20.60
2015,07,27,15,15,20.70
2015,07,27,15,16,20.60
2015,07,27,15,17,20.50
2015,07,27,15,18,20.40
2015,07,27,15,19,20.30
2015,07,27,15,20,20.40
2015,07,27,15,21,20.40
2015,07,27,15,22,20.40
2015,07,27,15,23,20.40
2015,07,27,15,24,20.50
2015,07,27,15,25,20.70
2015,07,27,15,26,20.80
2015,07,27,15,27,20.80
2015,07,27,15,28,20.70
2015,07,27,15,29,20.80
2015,07,27,15,30,20.90
2015,07,27,15,31,21.00
2015,07,27,15,32,21.10
2015,07,27,15,33,21.10
2015,07,27,15,34,21.00
2015,07,27,15,35,20.90
2015,07,27,15,36,20.80
2015,07,27,15,37,20.70
2015,07,27,15,38,20.80
2015,07,27,15,39,20.80
2015,07,27,15,40,20.70
2015,07,27,15,41,20.80
2015,07,27,15,42,20.80
2015,07,27,15,43,20.90
2015,07,27,15,44,20.90
2015,07,27,15,45,20.90
2015,07,27,15,46,20.90
2015,07,27,15,47,20.80
2015,07,27,15,48,20.90
2015,07,27,15,49,20.90
2015,07,27,15,50,20.80
2015,07,27,15,51,20.80
2015,07,27,15,52,20.80
2015,07,27,15,53,20.90
2015,07,27,15,54,20.90
2015,07,27,15,55,21.00
2015,07,27,15,56,20.90
2015,07,27,15,57,20.90
2015,07,27,15,58,20.90
2015,07,27,15,59,20.80
2015,07,27,16,00,20.80
2015,07,27,16,01,20.90
2015,07,27,16,02,21.00
2015,07,27,16,03,21.20
2015,07,27,16,04,21.40
2015,07,27,16,05,21.50
2015,07,27,16,06,21.60
2015,07,27,16,07,21.50
2015,07,27,16,08,21.30
2015,07,27,16,09,21.10
2015,07,27,16,10,21.00
2015,07,27,16,11,20.90
2015,07,27,16,12,20.80
2015,07,27,16,13,20.80
2015,07,27,16,14,20.80
2015,07,27,16,15,20.80
2015,07,27,16,16,20.90
2015,07,27,16,17,20.90
2015,07,27,16,18,21.00
2015,07,27,16,19,21.10
2015,07,27,16,20,21.20
2015,07,27,16,21,21.10
2015,07,27,16,22,20.90
2015,07,27,16,23,20.90
2015,07,27,16,24,20.90
2015,07,27,16,25,20.90
2015,07,27,16,26,20.90
2015,07,27,16,27,20.90
2015,07,27,16,28,20.90
2015,07,27,16,29,20.80
2015,07,27,16,30,20.70
2015,07,27,16,31,20.70
2015,07,27,16,32,20.80
2015,07,27,16,33,20.70
2015,07,27,16,34,20.70
2015,07,27,16,35,20.70
2015,07,27,16,36,20.80
2015,07,27,16,37,20.80
2015,07,27,16,38,20.90
2015,07,27,16,39,20.90
2015,07,27,16,40,20.90
2015,07,27,16,41,20.90
2015,07,27,16,42,21.00
2015,07,27,16,43,21.10
2015,07,27,16,44,21.10
2015,07,27,16,45,21.20
2015,07,27,16,46,21.20
2015,07,27,16,47,21.20
2015,07,27,16,48,21.20
2015,07,27,16,49,21.20
2015,07,27,16,50,21.20
2015,07,27,16,51,21.10
2015,07,27,16,52,21.10
2015,07,27,16,53,21.10
2015,07,27,16,54,21.00
2015,07,27,16,55,20.90
2015,07,27,16,56,20.90
2015,07,27,16,57,20.80
2015,07,27,16,58,20.70
2015,07,27,16,59,20.70
2015,07,27,17,00,20.70
2015,07,27,17,01,20.70
2015,07,27,17,02,20.70
2015,07,27,17,03,20.70
2015,07,27,17,04,20.70
2015,07,27,17,05,20.80
2015,07,27,17,06,20.80
2015,07,27,17,07,20.80
2015,07,27,17,08,20.70
2015,07,27,17,09,20.80
2015,07,27,17,10,20.90
2015,07,27,17,11,21.00
2015,07,27,17,12,21.00
2015,07,27,17,13,21.10
2015,07,27,17,14,21.10
2015,07,27,17,15,21.00
2015,07,27,17,16,20.80
2015,07,27,17,17,20.80
2015,07,27,17,18,20.80
2015,07,27,17,19,20.90